User: anonymous   Login
Location: Oshawa
(43.9000°N, 78.8670°W)
Time: 14:15:21
(UTC-05:00)
Language:

Cosmos 1805 Rocket - Orbit

View from above orbital plane
View from above orbital plane
View from above satellite
View from above satellite

Ground track
Ground track

The orbit data is extracted from the following two-line orbital elements,

1 17192U 86097B   18050.91230590 +.00000072 +00000-0 +57826-5 0  9995
2 17192 082.5067 023.9963 0017154 010.2761 045.3498 14.83536381685405
Epoch (UTC): 19 February 2018 21:53:43
Eccentricity: 0.0017154
inclination: 82.5067°
perigee height: 606 km
apogee height: 630 km
right ascension of ascending node: 23.9963°
argument of perigee: 10.2761°
revolutions per day: 14.83536381
mean anomaly at epoch: 45.3498°
orbit number at epoch: 68540

The dashed part of the orbit path shows where the satellite is in the earth's shadow,  

DLR